Tracking 19854 objects as of 23-Sep-2019
HD Live streaming from Space Station
objects crossing your sky now

STARLINK OBJ Q

Track STARLINK OBJ Q now!
10-day predictions
STARLINK OBJ Q is classified as:


NORAD ID: 44249
Int'l Code: 2019-029Q
Perigee: 538.0 km
Apogee: 541.5 km
Inclination: 53.0 °
Period: 95.3 minutes
Semi major axis: 6910 km
RCS: Unknown
Launch date: May 24, 2019
Source: United States (US)
Launch site: AIR FORCE EASTERN TEST RANGE (AFETR)
aabbcc
Your satellite tracking list
Your tracking list is empty




NASA's NSSDC Master Catalog

Two Line Element Set (TLE):
1 44249U 19029Q   19265.70292510  .00000071  00000-0  21602-4 0  9996
2 44249  53.0027 342.3437 0002489 161.1677 198.9406 15.11180892 18541
Source of the keplerian elements: AFSPC